[[{"header":{"parameterUnit":"m.s-1","parameterCategory":1,"la1":30.2991,"la2":30.254,"lo1":-89.0895,"lo2":-89.0444,"dy":0.0017,"dx":0.0017,"nx":28,"ny":28,"refTime":"2023-08-20T09:00:00:Z","depth":0,"parameterNumber":2,"parameterNumberName":"U-component_of_WINDS"},"data":[0,0,0,0,0,0,0,0,0,0,0,0,0,0,0,0,0,0,0,0,0,0,0,0,0,0,0,0,0,0,0,0,0,0,0,0,0,0,0,0,0,0,0,0,0,0,0,0,0,0,0,0,0,0,0,0,0,0,-5.3577,-5.3576,0,-5.3542,-5.3542,-5.3541,-5.3368,-5.3364,-5.336,-5.3356,-5.3323,-5.3326,-5.3329,0,0,0,0,0,0,0,0,0,0,0,0,0,-5.3496,-5.3498,-5.3577,-5.3576,-5.3576,-5.3542,-5.3541,-5.3541,-5.3369,-5.3364,-5.3359,-5.3354,-5.3322,-5.3326,-5.3329,0,0,0,0,0,0,0,0,0,0,0,0,0,-5.3503,-5.3499,-5.3577,-5.3486,-5.3477,-5.3542,-5.3541,-5.3541,-5.337,-5.3364,-5.3358,-5.3352,-5.3321,-5.3325,-5.333,-5.348,0,0,-5.3343,-5.3345,0,0,0,0,0,0,0,0,-5.3503,-5.3506,-5.35,-5.3492,-5.3483,-5.3453,-5.35,-5.3521,-5.3371,-5.3411,-5.3356,-5.3349,-5.3371,-5.3371,-5.3378,-5.3478,-5.3477,-5.3343,-5.3346,-5.3348,-5.3349,0,0,0,0,0,0,0,-5.3503,-5.3507,-5.3563,-5.35,-5.3489,-5.3447,-5.3441,-5.3504,-5.3426,-5.3407,-5.3394,-5.3392,-5.3366,-5.3375,-5.3376,-5.3477,-5.3343,-5.3347,-5.335,-5.3352,-5.3696,-5.3703,0,0,0,0,0,0,-5.3515,-5.3507,-5.3564,-5.3562,-5.3478,-5.3454,-5.3447,-5.3469,-5.3425,-5.3412,-5.3398,-5.3384,-5.337,-5.3371,-5.3375,-5.3545,-5.3348,-5.3352,-5.3355,-5.369,-5.3698,-5.3705,0,0,0,0,0,0,-5.3513,-5.3521,-5.3565,-5.3531,-5.3534,-5.3462,-5.3487,-5.3471,-5.348,-5.3418,-5.3403,-5.3421,-5.3365,-5.3368,-5.3454,-5.3542,-5.3354,-5.3358,-5.3682,-5.3692,-5.3701,-5.389,0,0,0,0,0,0,-5.3512,-5.3522,-5.3578,-5.3534,-5.3536,-5.3646,-5.3493,-5.3475,-5.3488,-5.347,-5.3436,-5.3424,-5.3361,-5.3449,-5.3459,-5.3544,-5.3362,-5.3674,-5.3687,-5.3698,-5.3876,-5.3905,-5.393,0,0,0,0,0,-5.351,-5.3633,-5.3582,-5.3589,-5.3604,-5.3651,-5.3652,-5.3576,-5.3496,-5.3551,-5.3511,-5.3425,-5.3532,-5.3459,-5.3469,-5.3557,-5.3668,-5.3683,-5.3697,-5.3863,-5.3899,-5.393,0,0,0,0,0,0,-5.3691,-5.3626,-5.3568,-5.3681,-5.3673,-5.3622,-5.3689,-5.3617,-5.3632,-5.3615,-5.352,-5.3514,-5.3614,-5.3595,-5.3515,-5.37,-5.3585,-5.3603,-5.3708,-5.3742,-5.3768,-5.3769,-5.3365,0,0,0,0,0,-5.3744,-5.3786,-5.3728,-5.3833,-5.3832,-5.3763,-5.378,-5.3722,-5.371,-5.3706,-5.3672,-5.3664,-5.3695,-5.3718,-5.3744,-5.3873,-5.3862,-5.3939,-5.3966,-5.3989,-5.4004,-5.4069,-5.4102,-5.3753,-5.3753,-5.3753,0,0,-5.3854,-5.3824,-5.3856,-5.3869,-5.3855,-5.3902,-5.376,-5.3816,-5.3849,-5.3714,-5.3792,-5.3768,-5.3753,-5.3861,-5.3907,-5.3848,-5.4099,-5.4008,-5.4026,-5.4029,-5.4088,-5.4121,-5.415,-5.3763,-5.3761,-5.3759,0,0,-5.4076,-5.4059,-5.4143,-5.4133,-5.4115,-5.4067,-5.4088,-5.4049,-5.4026,-5.4104,-5.4003,-5.4042,-5.4099,-5.4091,-5.4095,-5.4317,-5.4237,-5.4328,-5.4469,-5.4534,-5.4561,-5.4585,-5.4662,-5.469,-5.4344,-5.4345,-5.4345,0,-5.4215,-5.428,-5.4197,-5.4258,-5.4266,-5.4146,-5.423,-5.4225,-5.4217,-5.4225,-5.4159,-5.4226,-5.4208,-5.4312,-5.4366,-5.4374,-5.4394,-5.433,-5.4564,-5.4587,-5.4608,-5.468,-5.4709,-5.4355,-5.4354,-5.4353,-5.4352,0,-5.445,-5.4497,-5.4568,-5.4561,-5.4577,-5.4651,-5.4578,-5.4605,-5.4547,-5.4507,-5.4586,-5.4561,-5.4578,-5.4599,-5.4543,-5.4695,-5.4658,-5.4581,-5.4463,-5.4654,-5.4719,-5.4746,-5.4371,-5.4367,-5.4364,-5.4361,0,0,-5.4784,-5.473,-5.4757,-5.4751,-5.4723,-5.4757,-5.4826,-5.4841,-5.4865,-5.4865,-5.4918,-5.4969,-5.4896,-5.4901,-5.4843,-5.4901,-5.5074,-5.4814,-5.4813,-5.4861,-5.5238,-5.5294,-5.5327,-5.5023,-5.5028,-5.5032,-5.5238,0,-5.4994,-5.5105,-5.5032,-5.5155,-5.5196,-5.5083,-5.5142,-5.5131,-5.5096,-5.5127,-5.5089,-5.5125,-5.5027,-5.5029,-5.5081,-5.5042,-5.5148,-5.5027,-5.5071,-5.5074,-5.5074,-5.5362,-5.5422,-5.5617,-5.5263,-5.5268,-5.5271,0,-5.5254,-5.5262,-5.5389,-5.535,-5.5364,-5.5419,-5.5426,-5.5458,-5.5443,-5.5414,-5.542,-5.5348,-5.5412,-5.5299,-5.5385,-5.5305,-5.5319,-5.5303,-5.5309,-5.5307,-5.5181,-5.5365,-5.5678,-5.5706,-5.5311,-5.5308,-5.5305,0,-5.548,-5.5524,-5.5604,-5.5604,-5.5562,-5.5602,-5.5587,-5.5566,-5.558,-5.5588,-5.5596,-5.5613,-5.5621,-5.5636,-5.5571,-5.5495,-5.5665,-5.5547,-5.5642,-5.5643,-5.5679,-5.5677,-5.5995,-5.5696,-5.5695,-5.5695,-5.5694,0,-5.572,-5.5801,-5.5705,-5.5754,-5.5841,-5.5758,-5.5847,-5.582,-5.5803,-5.5845,-5.5751,-5.5793,-5.5705,-5.5739,-5.5689,-5.5767,-5.5772,-5.575,-5.5734,-5.5756,-5.5758,-5.5761,-5.5745,-5.5702,-5.57,-5.5699,-5.5698,0,-5.5986,-5.5925,-5.6005,-5.5959,-5.5949,-5.6015,-5.5976,-5.602,-5.5979,-5.6034,-5.6042,-5.5978,-5.6013,-5.5949,-5.5977,-5.5942,-5.6051,-5.6017,-5.6055,-5.6044,-5.614,-5.6131,-5.6468,-5.6507,-5.6186,-5.619,-5.6192,0,-5.6142,-5.6201,-5.6161,-5.6181,-5.6171,-5.6207,-5.6219,-5.6141,-5.6159,-5.6147,-5.6192,-5.6219,-5.6235,-5.6295,-5.6252,-5.6272,-5.6235,-5.6352,-5.6237,-5.6257,-5.6233,-5.6229,-5.6233,-5.6375,-5.6379,-5.6382,-5.6384,0,-5.6423,-5.639,-5.6412,-5.6424,-5.6442,-5.6448,-5.6447,-5.647,-5.6387,-5.6412,-5.6445,-5.6458,-5.6484,-5.6511,-5.6521,-5.6506,-5.6432,-5.6422,-5.6444,-5.6464,-5.6482,-5.6471,-5.6116,-5.6413,-5.641,-5.6408,-5.6407,-5.6405,-5.6636,-5.6682,-5.6661,-5.6688,-5.6679,-5.6681,-5.6719,-5.6683,-5.6709,-5.6723,-5.6676,-5.672,-5.6704,-5.6709,-5.6702,-5.6735,-5.6683,-5.6716,-5.6724,-5.6733,-5.6746,-5.6481,-5.6738,-5.6737,-5.6736,-5.6735,-5.6734,0,-5.6909,-5.689,-5.6916,-5.6917,-5.6939,-5.6867,-5.6863,-5.6886,-5.6925,-5.6916,-5.6934,-5.6972,-5.6998,-5.6957,-5.6976,-5.7011,-5.6977,-5.7018,-5.7013,-5.701,-5.6794,-5.6771,-5.7045,-5.7045,-5.7045,-5.7045,-5.7045,-5.7045,-5.7053,-5.7127,-5.7092,-5.7161,-5.7141,-5.7182,-5.7185,-5.7186,-5.7178,-5.7224,-5.7244,-5.7218,-5.7196,-5.7213,-5.7233,-5.7221,-5.7231,-5.7283,-5.7259,-5.7056,-5.7026,-5.6997,-5.6975,-5.7287,-5.7288,-5.7472,-5.7474,-5.7475]},{"header":{"parameterUnit":"m.s-1","parameterCategory":1,"la1":30.2991,"la2":30.254,"lo1":-89.0895,"lo2":-89.0444,"dy":0.0017,"dx":0.0017,"nx":28,"ny":28,"refTime":"2023-08-20T09:00:00:Z","depth":0,"parameterNumber":3,"parameterNumberName":"V-component_of_WINDS"},"data":[0,0,0,0,0,0,0,0,0,0,0,0,0,0,0,0,0,0,0,0,0,0,0,0,0,0,0,0,0,0,0,0,0,0,0,0,0,0,0,0,0,0,0,0,0,0,0,0,0,0,0,0,0,0,0,0,0,0,-0.2559,-0.256,0,-0.2593,-0.2593,-0.2593,-0.2648,-0.2649,-0.265,-0.2651,-0.2684,-0.2684,-0.2684,0,0,0,0,0,0,0,0,0,0,0,0,0,-0.254,-0.254,-0.2559,-0.256,-0.256,-0.2593,-0.2593,-0.2593,-0.2648,-0.265,-0.2651,-0.2652,-0.2684,-0.2684,-0.2684,0,0,0,0,0,0,0,0,0,0,0,0,0,-0.2558,-0.254,-0.2559,-0.2591,-0.2595,-0.2592,-0.2593,-0.2594,-0.2648,-0.265,-0.2651,-0.2652,-0.2684,-0.2684,-0.2684,-0.2653,0,0,-0.2684,-0.2683,0,0,0,0,0,0,0,0,-0.2557,-0.2559,-0.2586,-0.2589,-0.2593,-0.2618,-0.2598,-0.2613,-0.2648,-0.2628,-0.2651,-0.2653,-0.2661,-0.2663,-0.2665,-0.2654,-0.2655,-0.2683,-0.2683,-0.2683,-0.2683,0,0,0,0,0,0,0,-0.2556,-0.2558,-0.2572,-0.2586,-0.259,-0.2603,-0.2607,-0.2601,-0.2635,-0.263,-0.2634,-0.2637,-0.2663,-0.2665,-0.2667,-0.2656,-0.2684,-0.2683,-0.2683,-0.2683,-0.2617,-0.2616,0,0,0,0,0,0,-0.255,-0.2556,-0.2571,-0.2573,-0.2578,-0.2602,-0.2607,-0.2608,-0.2635,-0.2641,-0.2636,-0.2639,-0.2665,-0.2667,-0.2668,-0.2631,-0.2683,-0.2683,-0.2683,-0.2619,-0.2617,-0.2615,0,0,0,0,0,0,-0.2549,-0.2551,-0.257,-0.2566,-0.2569,-0.2601,-0.2602,-0.2608,-0.2611,-0.264,-0.2646,-0.2632,-0.2666,-0.2668,-0.2655,-0.2633,-0.2683,-0.2683,-0.2621,-0.2619,-0.2616,-0.2558,0,0,0,0,0,0,-0.2548,-0.255,-0.254,-0.2565,-0.2569,-0.2558,-0.2601,-0.2608,-0.2611,-0.2616,-0.2638,-0.2644,-0.2668,-0.2655,-0.2655,-0.2634,-0.2683,-0.2623,-0.262,-0.2617,-0.2562,-0.2554,-0.2547,0,0,0,0,0,-0.2548,-0.2522,-0.2539,-0.254,-0.2557,-0.2556,-0.2559,-0.2587,-0.2609,-0.2597,-0.2616,-0.2643,-0.2636,-0.2654,-0.2654,-0.2632,-0.2625,-0.2621,-0.2617,-0.2566,-0.2556,-0.2547,0,0,0,0,0,0,-0.2493,-0.2526,-0.2545,-0.2527,-0.2538,-0.2566,-0.2553,-0.2576,-0.2581,-0.2586,-0.262,-0.2625,-0.2607,-0.2619,-0.2638,-0.2602,-0.2634,-0.263,-0.2595,-0.2586,-0.2578,-0.2575,-0.2683,0,0,0,0,0,-0.2479,-0.2477,-0.2506,-0.2487,-0.2492,-0.2521,-0.2522,-0.2543,-0.2555,-0.256,-0.2578,-0.2589,-0.2589,-0.2588,-0.259,-0.2564,-0.2569,-0.2549,-0.2542,-0.2535,-0.2531,-0.2516,-0.2507,-0.2603,-0.2603,-0.2603,0,0,-0.245,-0.2468,-0.2464,-0.2476,-0.2488,-0.2483,-0.2525,-0.2519,-0.2515,-0.256,-0.2548,-0.2561,-0.2575,-0.2555,-0.2547,-0.2564,-0.2506,-0.2531,-0.2525,-0.2525,-0.2511,-0.2502,-0.2494,-0.26,-0.2601,-0.2601,0,0,-0.2395,-0.2409,-0.2394,-0.2404,-0.242,-0.2439,-0.2435,-0.2458,-0.2468,-0.2458,-0.249,-0.2486,-0.2486,-0.2494,-0.2498,-0.2442,-0.2467,-0.2442,-0.2402,-0.2387,-0.2379,-0.2373,-0.2351,-0.2343,-0.2438,-0.2438,-0.2438,0,-0.2356,-0.2352,-0.2383,-0.2374,-0.2378,-0.2417,-0.2401,-0.2409,-0.2425,-0.2426,-0.2445,-0.2443,-0.2456,-0.2437,-0.2423,-0.2426,-0.2421,-0.2439,-0.2378,-0.2372,-0.2366,-0.2346,-0.2338,-0.2435,-0.2435,-0.2435,-0.2436,0,-0.2303,-0.2299,-0.2285,-0.2298,-0.23,-0.2288,-0.2316,-0.2314,-0.2334,-0.235,-0.2337,-0.2353,-0.2358,-0.2355,-0.2375,-0.2338,-0.2348,-0.2372,-0.2405,-0.2353,-0.2334,-0.2327,-0.243,-0.2431,-0.2432,-0.2433,0,0,-0.2215,-0.2244,-0.2239,-0.2244,-0.2264,-0.2261,-0.2249,-0.2254,-0.225,-0.2259,-0.2249,-0.2247,-0.2269,-0.2273,-0.2294,-0.2281,-0.2233,-0.2306,-0.2307,-0.229,-0.2191,-0.2172,-0.2163,-0.2249,-0.2248,-0.2247,-0.2189,0,-0.2162,-0.2145,-0.2172,-0.2148,-0.2143,-0.2179,-0.2169,-0.2179,-0.2194,-0.2191,-0.2207,-0.2204,-0.2234,-0.2236,-0.2225,-0.2241,-0.2213,-0.2246,-0.2239,-0.2238,-0.2233,-0.2153,-0.2134,-0.2079,-0.2182,-0.2181,-0.218,0,-0.2099,-0.2104,-0.208,-0.2099,-0.2098,-0.2088,-0.2093,-0.209,-0.2102,-0.2113,-0.2117,-0.2141,-0.2129,-0.2161,-0.2145,-0.2166,-0.2165,-0.2172,-0.217,-0.217,-0.2205,-0.2149,-0.2062,-0.2053,-0.217,-0.217,-0.2171,0,-0.2035,-0.2036,-0.2021,-0.2025,-0.2047,-0.2039,-0.2048,-0.206,-0.2061,-0.2065,-0.2065,-0.2067,-0.2068,-0.2069,-0.2092,-0.2114,-0.2071,-0.2106,-0.2079,-0.2078,-0.2068,-0.2068,-0.1978,-0.2069,-0.2069,-0.2069,-0.207,0,-0.1973,-0.1956,-0.1992,-0.1983,-0.1964,-0.1994,-0.1974,-0.1986,-0.1997,-0.1989,-0.2021,-0.2013,-0.2045,-0.204,-0.2058,-0.204,-0.2041,-0.2048,-0.2053,-0.2045,-0.2044,-0.2044,-0.2048,-0.2067,-0.2068,-0.2068,-0.2069,0,-0.1899,-0.1922,-0.1908,-0.1929,-0.1934,-0.1919,-0.1937,-0.1928,-0.1944,-0.1934,-0.1933,-0.1958,-0.1954,-0.1977,-0.1977,-0.1989,-0.1961,-0.1973,-0.1957,-0.196,-0.1931,-0.1933,-0.1837,-0.1825,-0.1925,-0.1924,-0.1923,0,-0.1857,-0.1845,-0.1864,-0.1862,-0.1869,-0.1864,-0.1864,-0.1892,-0.1891,-0.1901,-0.189,-0.1888,-0.1888,-0.1878,-0.1896,-0.1895,-0.1906,-0.1873,-0.1906,-0.1897,-0.1904,-0.1903,-0.1901,-0.1865,-0.1864,-0.1863,-0.1862,0,-0.178,-0.1792,-0.1791,-0.1793,-0.1792,-0.1795,-0.18,-0.1796,-0.1826,-0.1822,-0.1818,-0.1817,-0.1816,-0.1813,-0.1815,-0.1823,-0.1847,-0.1851,-0.1845,-0.1835,-0.1826,-0.1829,-0.1936,-0.1853,-0.1854,-0.1855,-0.1855,-0.1856,-0.172,-0.1709,-0.1721,-0.1718,-0.1725,-0.1728,-0.172,-0.1735,-0.1732,-0.1733,-0.175,-0.1741,-0.1751,-0.1756,-0.1761,-0.1754,-0.177,-0.1761,-0.1758,-0.1755,-0.1749,-0.1828,-0.1755,-0.1755,-0.1756,-0.1756,-0.1756,0,-0.1643,-0.1651,-0.1648,-0.1654,-0.1651,-0.1674,-0.168,-0.1676,-0.1668,-0.1675,-0.1674,-0.1667,-0.1664,-0.168,-0.1678,-0.1669,-0.168,-0.1668,-0.1668,-0.1669,-0.1736,-0.1741,-0.1659,-0.1659,-0.1659,-0.1659,-0.1659,-0.1659,-0.1602,-0.1585,-0.1598,-0.1583,-0.1593,-0.1585,-0.1586,-0.1588,-0.1594,-0.1585,-0.1582,-0.1593,-0.1603,-0.1602,-0.1599,-0.1604,-0.1601,-0.1584,-0.1592,-0.1655,-0.1664,-0.1673,-0.1678,-0.1584,-0.1584,-0.1525,-0.1525,-0.1524]}]]